"Pseudo-MPEC" for P10Ny0k

Created 2019 Jun 20 19:07:14 UT using Find_Orb

Click here for an explanation of pseudo-MPECs

 
 Astrometry: 
     P10Ny0k  C2019 05 07NxAAstrometrywF(f;FS4ht+s1=RSLcIiPAEd:gl8bj8jVTj/hX*F51
     P10Ny0k  C2019 05 07MQok]Ix/2!SBS,G)S:ECRiS`redacted;Ycclick(7GVip!?yj,CF51
     P10Ny0k  C2019 05 07HwPd]wG67FYD53here*nPg,QCO!D/@wyQBONrm2poa;for6_Q#jyF51
     P10Ny0k  C2019 05 07S1_^Th_RxY)w`4@icl6O++X!A=,Da+QexplanationrkiYNXWb;/F51
     P10Ny0k  C2019 05 08.17188 14 57 13.41 +23 53 33.4    ~58Et 22.6 GVNEOCPV06
     P10Ny0k  C2019 05 08.18103 14 57 12.68 +23 53 31.7    ~58Et 22.9 GVNEOCPV06
     P10Ny0k  C2019 05 08.18870 14 57 12.22 +23 53 30.9    ~58Et       VNEOCPV06

Station data:
(F51) Pan-STARRS 1, Haleakala  (N20.707235 W156.255910)  US/Hawaii.
   Observers N. Primak, A. Schultz, S. Watters, J. Thiel, T. Goggia. Measurer
   PS1 Science Consortium. 1.8-m Ritchey-Chrétien + CCD.
(V06) Catalina Sky Survey-Kuiper  (N32.416847 W110.732550)  US/Arizona.
   Observers T. A. Pruyne, B. M. Africano, E. J. Christensen, G. A. Farneth,
   D. C. Fuls, A. R. Gibbs, A. D. Grauer, H. Groeller, J. A. Johnson, R. A.
   Kowalski, S. M. Larson, G. J. Leonard, R. L. Seaman, F. C. Shelly. 1.55-m
   reflector + CCD.

Orbital elements:  P10Ny0k
   Perihelion 2018 May 28.493847 +/- 273 TT = 11:51:08 (JD 2458266.993847)
Epoch 2019 May  8.0 TT = JDT 2458611.5   Earth MOID: 0.6310   Ma: 0.0113
M 139.96270483 +/- 120              (J2000 ecliptic)          AutoNEOCP
n   0.40627055 +/- 0.0799           Peri.  319.18408 +/- 55
a   1.80547918 +/- 0.237            Node   112.16225 +/- 14
e   0.1217203 +/- 0.118             Incl.   21.43902 +/- 5.9
P   2.43/886.09d           H 20.1   G  0.15   U 11.1  SR
q 1.58571555 +/- 0.139    Q 2.02524282 +/- 0.686
From 7 observations 2019 May 7-8 (20.2 hr); mean residual 0".51
Residuals in arcseconds: 
190507 F51  .09-  .08-    190507 F51  .00   .07-    190508 V06  1.5+  .28+    
190507 F51  .10+  .14+    190508 V06  .84-  .07-    
190507 F51  .02+  .01+    190508 V06  .70-  .22-    

Ephemerides (geocentric):
Date (UTC) HH   RA              Dec         delta   r     elong  mag " sig PA
---- -- -- --  -------------   -----------  ------ ------ -----  --- ---- ---
2019 06 20 19  14 23 01.174   +15 02 58.29  1.3544 2.0121 115.4 23.5 9899  96
2019 06 20 20  14 23 00.991   +15 02 13.61  1.3547 2.0122 115.4 23.5 9917  96
2019 06 20 21  14 23 00.811   +15 01 28.91  1.3551 2.0122 115.4 23.5 9934  96
2019 06 20 22  14 23 00.635   +15 00 44.21  1.3554 2.0122 115.3 23.5 9952  96
2019 06 20 23  14 23 00.463   +14 59 59.49  1.3558 2.0122 115.3 23.5 9970  96
2019 06 21 00  14 23 00.293   +14 59 14.77  1.3562 2.0122 115.3 23.5 9988  96
2019 06 21 01  14 23 00.128   +14 58 30.03  1.3565 2.0123 115.3 23.5 167'  96
2019 06 21 02  14 22 59.965   +14 57 45.28  1.3569 2.0123 115.2 23.5 167'  96
2019 06 21 03  14 22 59.806   +14 57 00.51  1.3572 2.0123 115.2 23.5 167'  96
2019 06 21 04  14 22 59.651   +14 56 15.74  1.3576 2.0123 115.2 23.5 168'  96
2019 06 21 05  14 22 59.499   +14 55 30.96  1.3579 2.0123 115.1 23.5 168'  96
2019 06 21 06  14 22 59.350   +14 54 46.16  1.3583 2.0124 115.1 23.5 168'  96
2019 06 21 07  14 22 59.205   +14 54 01.36  1.3586 2.0124 115.1 23.5 169'  96
2019 06 21 08  14 22 59.063   +14 53 16.54  1.3590 2.0124 115.1 23.5 169'  96
2019 06 21 09  14 22 58.924   +14 52 31.71  1.3593 2.0124 115.0 23.5 169'  96
2019 06 21 10  14 22 58.789   +14 51 46.87  1.3597 2.0124 115.0 23.5 169'  96
2019 06 21 11  14 22 58.658   +14 51 02.03  1.3601 2.0125 115.0 23.5 170'  96
2019 06 21 12  14 22 58.530   +14 50 17.16  1.3604 2.0125 115.0 23.5 170'  96
2019 06 21 13  14 22 58.405   +14 49 32.29  1.3608 2.0125 114.9 23.5 170'  96
2019 06 21 14  14 22 58.283   +14 48 47.41  1.3611 2.0125 114.9 23.5 171'  96
2019 06 21 15  14 22 58.166   +14 48 02.52  1.3615 2.0125 114.9 23.5 171'  96
2019 06 21 16  14 22 58.051   +14 47 17.61  1.3618 2.0126 114.8 23.5 171'  96
2019 06 21 17  14 22 57.940   +14 46 32.70  1.3622 2.0126 114.8 23.5 172'  96
2019 06 21 18  14 22 57.832   +14 45 47.78  1.3625 2.0126 114.8 23.5 172'  96
2019 06 21 19  14 22 57.728   +14 45 02.84  1.3629 2.0126 114.8 23.5 172'  96
2019 06 21 20  14 22 57.627   +14 44 17.89  1.3633 2.0126 114.7 23.5 172'  96
2019 06 21 21  14 22 57.529   +14 43 32.94  1.3636 2.0127 114.7 23.5 173'  95
2019 06 21 22  14 22 57.435   +14 42 47.97  1.3640 2.0127 114.7 23.5 173'  95
2019 06 21 23  14 22 57.344   +14 42 02.99  1.3643 2.0127 114.7 23.5 173'  95
2019 06 22 00  14 22 57.257   +14 41 18.00  1.3647 2.0127 114.6 23.5 174'  95
2019 06 22 01  14 22 57.173   +14 40 33.00  1.3650 2.0127 114.6 23.5 174'  95
2019 06 22 02  14 22 57.092   +14 39 47.99  1.3654 2.0128 114.6 23.6 174'  95
2019 06 22 03  14 22 57.015   +14 39 02.97  1.3658 2.0128 114.5 23.6 175'  95
2019 06 22 04  14 22 56.941   +14 38 17.94  1.3661 2.0128 114.5 23.6 175'  95
2019 06 22 05  14 22 56.871   +14 37 32.90  1.3665 2.0128 114.5 23.6 175'  95
2019 06 22 06  14 22 56.804   +14 36 47.85  1.3668 2.0128 114.5 23.6 176'  95
2019 06 22 07  14 22 56.740   +14 36 02.79  1.3672 2.0129 114.4 23.6 176'  95
2019 06 22 08  14 22 56.680   +14 35 17.72  1.3675 2.0129 114.4 23.6 176'  95
2019 06 22 09  14 22 56.623   +14 34 32.64  1.3679 2.0129 114.4 23.6 176'  95
2019 06 22 10  14 22 56.570   +14 33 47.55  1.3683 2.0129 114.4 23.6 177'  95
2019 06 22 11  14 22 56.520   +14 33 02.45  1.3686 2.0129 114.3 23.6 177'  95
2019 06 22 12  14 22 56.473   +14 32 17.34  1.3690 2.0129 114.3 23.6 177'  95
2019 06 22 13  14 22 56.430   +14 31 32.21  1.3693 2.0130 114.3 23.6 178'  95
2019 06 22 14  14 22 56.390   +14 30 47.08  1.3697 2.0130 114.2 23.6 178'  95
2019 06 22 15  14 22 56.353   +14 30 01.94  1.3701 2.0130 114.2 23.6 178'  95
2019 06 22 16  14 22 56.320   +14 29 16.79  1.3704 2.0130 114.2 23.6 179'  95
2019 06 22 17  14 22 56.290   +14 28 31.63  1.3708 2.0130 114.2 23.6 179'  95
2019 06 22 18  14 22 56.264   +14 27 46.45  1.3711 2.0131 114.1 23.6 179'  95